THORAD DELTA 1 DEB, 8310

Orbit data source: Space-Track

THORAD DELTA 1 DEB, 8310 is space debris in SSO originally from a launch on Fri, 15 Nov 1974 UTC launched from the Air Force Western Test Range (AFWTR). Debris objects in space refer to the collection of defunct objects orbiting the Earth. Examples of debris include non-operational satellites, rocket bodies, and fragments generated from explosions, collisions, or faulty payload assembly.

Loading next visibility...
Identifier
8310, 1974-089BT
Orbit
SSO
Country
Flag of USUS
Related business
Manufacturer
Unknown
Mission
Spacecraft
Bus & Motor
Unknown
Mass
Unknown
Launch date (UTC)
1974-11-15 (52 years ago)
Launch vehicle
Unknown
Launch site
Air Force Western Test Range (AFWTR)
Object type
Payload
Rocket body
Debris
Shape & HBR
Unknown shape, 0.8 m
Radar Cross Section
Medium (>0.1 m² and <1 m²)

Expand to show TLE details & history
Last TLE update: 18 hours ago

TLE from 18 hours ago
0 THORAD DELTA 1 DEB
1 08310U 74089BT  26175.21869664  .00000010  00000-0  38858-3 0  9999
2 08310 101.5737 153.8791 0065759 206.7630 164.4606 12.40384876336291
Epoch: 2026-06-24T05:14Z
TLE epoch observation values (Epoch: 2026-06-24T05:14:55.389Z)
Latitude
11.14679°
Longitude
160.46783°
Altitude
1,556.766 km
Speed
7.067 km/s
True Right ascension
10h 06m 18s
True Declination
11° 05' 18"
Sunlit
Object was in daylight at epoch
Visualization orbit readout
Latitude
Unknown
Longitude
Unknown
Altitude
Unknown
Speed
Unknown
Apparent Right ascension
Unknown
Apparent Declination
Unknown
Sunlit
N/A
Visualization observer readout
Local Sidereal Time
10:47:07
Azimuth
Unknown
Elevation
Unknown
Doppler factor
Unknown
Orbital elements
Apogee altitude
1,554.344 km
Perigee altitude
1,450.699 km
Semi-major axis
7,880.658 km
Eccentricity
0.00658
Inclination
101.5737°
RAAN
153.8791°
Arg. of periapsis
206.763°
True anomaly
164.66089°
Mean anomaly
164.4606°
Eccentric anomaly
164.5609°
Mean motion
3.10241 °/min
Orbital period
116.04 mins
BSTAR
0.00038858
Loading maneuver chart data...
Computing Atmospheric mass density...

Documentation

Showing up to 5 results
|